Temperature
17 14 14 14 14 15 15 15 14 14 15 15 14 14 14 16 16 16 16 17 17 17 18 18 19 19 18 18 17 16 15 14 13 12 11 11 11 10 10 10 10 9 9 8
14 14 14 15 16 16 16 15 14 13 14 14 14 13 14 15 15 16 16 16 16 17 18 18 18 18 17 17 16 16 15 14 14 13 13 12 11 10 10 10 9 9 9 8
15 15 17 17 17 16 15 15 14 14 13 13 14 14 15 15 15 15 16 16 16 16 16 17 17 17 16 16 16 15 15 14 13 13 12 11 10 10 10 10 10 9 9 8
15 15 17 17 17 16 14 15 15 14 13 12 13 13 14 15 15 14 15 15 16 16 16 16 16 16 15 15 15 14 14 13 13 12 11 11 11 11 11 10 10 9 9 8
15 17 17 17 16 16 15 15 14 14 13 12 12 12 12 14 15 14 14 15 15 15 15 15 15 15 15 14 14 14 13 12 12 12 11 11 10 10 10 10 9 9 9 8
14 16 17 16 16 16 15 13 13 11 11 13 14 13 13 13 14 14 14 14 15 15 15 15 14 14 14 14 14 13 13 12 12 11 11 11 10 10 10 9 9 9 8 8
15 16 16 16 16 15 14 12 12 13 12 13 13 14 13 14 14 14 14 14 15 15 14 14 14 14 13 13 13 13 12 12 12 11 11 11 10 10 9 9 9 8 8 8
15 14 15 15 16 15 14 13 12 13 12 11 12 13 13 13 14 15 15 14 14 14 14 14 13 13 13 13 12 12 12 11 11 11 11 10 10 10 9 9 9 8 8 8
14 15 15 15 15 15 15 13 12 11 11 11 11 12 13 14 13 13 13 14 14 14 13 13 13 12 12 12 12 11 11 11 11 10 10 10 9 9 9 8 8 8 7 7
15 15 15 14 14 14 14 12 10 11 12 11 11 11 13 14 13 13 12 13 13 13 13 12 12 12 11 11 11 11 10 10 10 9 9 9 8 8 8 7 7 7 7 7
15 14 13 13 14 14 13 13 12 10 10 10 10 11 13 13 13 12 12 13 13 13 12 12 11 11 11 10 10 10 9 9 9 8 8 8 8 7 7 7 7 6 6 6
13 11 11 12 13 13 12 12 11 12 11 9 9 11 13 12 12 12 12 12 12 12 11 11 11 10 10 9 9 9 8 8 8 7 7 7 7 6 6 6 6 5 5 5
13 11 12 13 13 13 13 13 12 11 10 9 9 11 12 11 11 12 12 11 11 11 10 10 10 9 9 9 8 8 7 7 7 6 6 6 6 6 5 5 5 5 4 4
12 11 11 13 12 13 12 12 12 11 9 8 9 11 12 11 10 10 11 10 10 10 9 9 9 8 8 8 7 7 7 6 6 6 5 5 5 5 5 4 4 4 3 3
11 11 10 10 11 11 11 11 11 10 9 9 10 10 11 10 9 10 10 9 9 9 8 8 8 7 7 7 6 6 6 5 5 5 5 4 4 4 4 3 3 3 3 2
9 10 10 10 11 10 10 10 10 10 10 9 10 10 10 9 10 9 9 8 8 8 7 7 7 7 6 6 5 5 5 5 4 4 4 4 3 3 3 2 2 2 2 1
8 9 9 8 9 9 9 10 10 10 10 9 9 9 8 8 8 9 8 8 7 7 7 6 6 6 5 5 5 4 4 4 3 3 3 3 2 2 2 1 1 1 1 0
8 8 7 7 9 8 10 11 11 10 9 9 8 8 8 8 8 8 8 7 6 6 6 5 5 5 5 4 4 4 3 3 3 2 2 1 1 1 1 0 0 -0 -0 -0
8 8 7 6 7 7 9 10 11 10 9 8 7 7 7 7 7 7 7 6 6 5 5 5 4 4 4 3 3 3 2 2 2 1 1 0 -0 -0 -0 -1 -1 -1 -1 -1
6 7 6 5 7 7 9 10 11 10 8 7 7 6 6 6 4 5 6 5 5 5 4 4 4 3 3 3 2 2 2 1 1 0 0 -0 -1 -1 -1 -1 -1 -1 -2 -2
6 6 5 5 5 7 8 9 10 9 7 7 7 6 6 5 4 5 4 4 4 4 3 3 3 3 2 2 1 1 1 1 0 -0 -0 -1 -1 -1 -2 -2 -2 -2 -2 -2
7 5 5 4 5 6 8 8 7 7 7 6 6 5 5 4 4 4 4 3 3 3 3 2 2 2 2 1 1 0 0 -0 -0 -1 -1 -1 -1 -2 -2 -2 -2 -2 -3 -3
6 7 6 6 7 7 8 7 7 7 6 5 5 4 4 4 3 3 3 3 2 2 2 2 1 1 1 1 0 -0 -1 -1 -1 -2 -2 -2 -2 -2 -2 -2 -3 -3 -3 -3
7 7 6 5 6 6 7 6 6 5 5 4 4 4 3 3 3 2 2 2 2 2 1 1 1 0 0 -0 -1 -1 -1 -2 -2 -2 -2 -2 -2 -3 -3 -3 -3 -3 -3 -4
6 6 5 5 5 6 6 5 5 5 5 4 4 4 3 3 2 2 2 2 1 1 1 0 0 -0 -1 -1 -1 -2 -2 -2 -3 -3 -3 -3 -3 -3 -3 -3 -3 -4 -4 -4
4 5 5 5 6 5 5 5 5 5 4 4 4 3 3 2 2 2 1 1 1 1 0 0 -0 -1 -1 -2 -2 -2 -3 -3 -3 -4 -4 -4 -4 -4 -4 -4 -4 -4 -4 -4
Wind_Speed
3 2 4 8 8 7 6 6 9 9 6 5 8 10 12 7 5 6 7 8 9 9 9 7 3 3 6 7 10 13 15 13 11 8 9 10 12 10 8 14 20 22 23 23
4 5 10 7 6 5 5 7 8 8 5 4 6 8 7 3 3 3 3 6 8 10 12 11 7 3 4 6 8 10 13 13 13 13 11 7 7 7 8 9 15 21 22 23
7 8 4 4 3 4 5 6 6 6 8 6 6 7 5 3 4 4 4 4 5 7 9 10 8 4 1 3 7 9 11 12 12 11 6 3 2 2 5 8 9 14 21 22
6 6 4 3 3 2 6 4 4 5 6 6 4 3 6 3 3 3 4 4 5 6 7 7 7 5 2 2 3 5 7 9 9 9 8 11 11 13 12 11 10 10 17 20
6 3 3 4 4 4 6 4 4 3 1 4 2 2 8 3 4 4 3 2 3 4 6 6 6 5 4 2 0 2 4 6 7 9 11 12 14 15 10 8 10 11 11 16
7 4 4 4 2 2 3 6 5 4 4 3 3 3 6 5 7 5 4 3 1 3 5 6 6 6 5 4 2 0 2 4 6 8 10 12 16 15 13 12 12 11 10 12
5 3 2 1 2 4 6 6 5 6 5 5 5 3 8 7 6 7 7 5 1 2 3 4 6 6 6 5 3 2 2 5 6 7 10 12 15 15 16 16 13 13 11 12
3 6 4 2 3 2 0 5 4 2 4 6 6 5 7 6 1 4 4 3 1 1 2 2 3 4 5 5 4 3 4 6 6 7 9 10 12 11 12 14 13 13 13 14
4 5 2 1 0 3 2 3 6 5 2 4 7 8 7 3 4 3 2 1 2 2 2 2 3 4 5 6 5 4 5 6 7 7 8 9 10 11 13 14 12 12 13 13
5 4 4 2 3 2 2 5 5 3 1 5 8 7 5 4 3 2 2 3 4 4 3 3 4 5 5 5 5 5 5 6 7 7 7 8 9 10 12 11 12 13 14 14
3 3 5 3 4 5 4 4 4 4 4 4 5 8 6 4 3 3 3 4 4 4 4 4 4 4 5 6 6 6 6 6 7 8 8 9 9 10 10 10 12 13 13 13
4 4 4 7 5 3 7 7 7 3 4 5 4 8 5 2 2 2 1 4 4 4 4 4 4 5 6 7 7 8 8 8 8 8 8 9 9 9 9 11 12 12 13 12
5 4 3 7 4 2 1 3 5 4 3 5 5 9 2 2 3 3 3 4 4 5 5 5 6 7 8 8 8 8 9 9 9 9 9 9 10 10 11 11 12 11 12 12
5 5 7 8 7 3 6 7 5 5 5 7 11 13 10 8 6 5 5 5 4 4 5 6 6 7 8 9 9 9 9 9 9 9 9 10 11 11 12 12 12 12 11 12
5 5 7 8 8 6 10 13 10 10 10 10 11 12 12 7 4 3 4 4 5 6 7 8 8 8 9 9 9 9 10 10 9 10 10 11 12 12 12 12 12 12 11 12
4 4 3 5 6 8 13 16 13 11 9 10 11 10 4 2 2 3 4 4 5 7 8 9 9 10 10 10 10 10 10 10 10 11 12 13 13 12 12 13 12 12 12 12
5 6 3 5 5 7 10 9 5 4 4 5 4 3 3 4 5 5 3 3 6 9 10 10 10 10 10 11 10 10 10 11 11 12 13 13 13 13 13 13 13 13 13 12
8 8 4 2 3 7 8 2 3 3 1 1 2 1 2 4 6 5 2 4 8 9 10 10 10 11 10 9 10 10 11 11 12 13 13 13 13 14 14 13 13 14 12 12
6 8 5 3 4 9 10 4 1 2 1 2 2 2 4 6 5 4 3 5 8 9 10 10 10 10 10 11 11 12 12 12 13 14 14 14 14 16 15 14 14 14 13 12
4 5 6 5 5 8 8 4 2 1 3 1 2 3 5 6 7 6 6 9 10 11 10 10 10 9 10 12 12 13 14 14 15 15 15 15 14 15 16 16 15 13 12 13
3 3 5 6 7 9 7 5 1 2 4 2 2 3 4 3 6 9 10 10 10 10 11 11 10 10 11 12 13 14 15 15 16 16 16 15 15 15 15 15 13 13 13 13
8 6 7 6 6 9 3 2 3 3 1 2 3 4 6 8 10 9 9 10 11 11 11 11 11 13 12 12 13 16 17 17 16 16 16 16 15 14 14 14 14 13 13 14
7 8 7 9 8 2 3 5 3 2 2 3 4 6 7 7 8 8 8 10 10 11 11 11 13 15 14 12 12 16 18 17 17 16 16 16 15 14 13 14 15 14 12 12
4 2 4 4 4 2 4 4 2 2 4 5 5 6 5 6 8 10 10 11 11 11 13 12 14 16 18 16 14 15 17 16 16 17 17 15 15 15 14 12 11 12 12 12
5 2 2 4 3 1 2 2 2 2 3 4 4 4 5 7 9 10 11 12 12 13 12 12 14 17 19 18 17 15 15 15 17 17 16 15 14 15 14 12 11 12 12 14
4 5 5 6 4 3 4 3 2 2 4 5 5 6 7 7 10 11 12 12 13 14 14 15 15 16 18 18 18 16 15 14 16 16 15 14 13 13 12 13 14 15 17 22
Wind_Direction
25 59 243 232 211 218 237 253 277 273 287 313 281 288 300 320 50 45 24 14 9 353 330 337 328 201 179 182 190 195 198 198 186 187 196 203 215 214 214 216 216 214 214 213
5 270 245 232 223 231 254 283 289 298 325 312 306 306 313 27 72 69 38 17 7 359 1 3 13 60 167 187 194 197 201 197 197 203 203 203 210 216 219 222 222 219 217 216
227 247 248 206 245 290 288 254 267 290 326 356 359 347 349 2 19 19 9 4 5 10 4 1 8 21 81 196 201 204 205 202 203 201 189 189 190 260 228 225 227 222 221 221
251 254 217 228 257 220 280 252 264 308 352 315 23 305 285 269 333 344 344 358 6 8 10 7 7 7 348 258 217 208 204 205 203 192 192 200 214 228 231 229 230 224 221 224
276 241 220 248 252 207 252 302 293 267 208 317 320 193 283 256 241 250 272 315 354 9 18 12 7 1 359 353 227 216 205 211 205 200 205 212 228 238 244 235 234 233 227 226
250 263 220 221 262 233 319 3 33 49 71 334 261 178 280 229 216 206 224 244 300 17 18 9 6 16 10 13 16 356 220 233 217 212 216 221 232 240 246 246 243 243 239 234
321 300 260 132 356 13 50 46 14 359 6 273 302 254 255 257 222 188 190 206 230 11 12 3 10 12 7 2 348 321 266 259 241 226 228 231 237 242 246 250 250 250 250 245
312 298 249 211 192 231 263 126 135 257 272 294 321 265 265 295 187 145 151 157 147 334 316 339 358 10 358 350 341 317 287 274 264 245 243 243 242 244 250 252 252 252 254 253
199 268 310 119 168 161 143 147 167 148 290 285 289 295 309 24 61 82 118 148 236 266 279 309 343 359 354 348 338 312 296 288 281 265 259 258 252 247 250 255 255 256 257 258
160 257 302 346 59 36 148 149 99 130 258 287 295 290 259 237 221 207 222 242 258 283 303 316 339 346 341 335 330 330 312 293 288 282 270 266 262 256 256 260 262 261 261 260
130 188 303 328 214 208 165 178 156 148 169 189 278 275 240 219 199 191 238 271 282 292 306 319 327 331 330 333 334 330 321 311 302 295 286 280 276 271 267 265 266 267 267 265
128 129 263 270 254 216 189 191 156 170 239 197 220 270 278 171 140 143 312 324 321 325 331 329 328 332 334 330 324 318 312 308 301 297 295 290 286 285 280 274 272 271 270 268
132 116 350 338 348 8 212 196 176 158 164 200 215 261 308 33 354 347 338 337 336 345 349 344 339 331 322 315 311 310 309 305 303 303 301 298 295 291 285 281 281 278 275 274
116 149 187 221 228 237 276 265 231 197 218 235 232 257 285 303 313 327 331 331 343 346 344 337 328 317 309 306 305 306 305 303 303 304 302 298 294 290 287 285 285 283 279 278
122 199 231 249 260 261 260 266 252 228 219 232 254 262 281 292 293 307 328 349 1 346 335 327 315 307 305 306 306 304 303 304 305 303 300 296 294 292 288 287 286 283 280 278
131 188 236 277 272 276 276 271 260 249 237 236 259 272 295 320 7 351 352 359 346 328 317 310 307 307 306 305 305 305 305 304 304 301 298 298 298 296 293 291 288 284 281 279
169 161 168 272 307 331 281 260 228 226 231 215 232 267 358 360 344 322 320 329 316 311 307 307 307 303 301 301 302 305 302 304 304 300 299 299 298 296 293 291 290 287 285 283
159 152 166 254 357 255 246 238 209 194 331 57 100 46 347 300 287 273 260 317 310 307 307 307 306 304 303 302 305 304 304 306 304 302 301 300 299 297 295 291 289 288 286 284
167 153 158 168 236 277 293 293 202 183 181 57 76 335 315 302 311 290 284 321 308 306 305 302 301 300 303 306 308 310 310 308 306 305 303 302 301 300 298 295 293 291 289 287
76 130 147 160 198 244 252 279 306 100 229 349 28 346 334 354 342 297 306 312 304 303 303 304 306 305 307 309 311 311 310 310 308 306 303 301 300 298 297 296 294 293 290 288
110 131 174 185 218 259 263 291 45 198 264 308 332 321 317 290 259 279 298 298 297 300 303 306 307 306 305 308 311 310 310 308 305 304 302 301 300 297 296 296 295 294 293 291
177 175 190 167 201 253 282 86 132 215 243 258 281 277 274 269 276 288 297 302 309 311 311 310 310 309 308 306 308 308 308 306 305 304 303 302 301 299 300 297 298 295 293 293
202 194 186 190 211 203 94 123 140 172 236 256 262 270 274 284 293 301 303 306 308 307 308 309 308 309 309 306 303 303 305 307 307 305 304 303 302 299 297 297 299 299 296 295
262 155 165 230 252 170 137 140 167 216 230 251 261 274 288 295 301 306 307 308 309 307 308 308 309 311 311 310 304 299 303 306 307 306 305 304 304 302 300 297 296 296 296 295
242 171 196 253 266 172 194 212 231 257 276 288 296 294 300 304 306 304 306 306 306 307 305 304 305 306 307 308 308 306 306 308 307 305 305 305 303 303 304 300 296 295 288 288
210 195 204 237 222 202 246 248 250 289 304 307 311 312 309 303 299 301 303 301 302 304 305 307 305 305 307 309 310 311 309 308 307 309 309 308 306 305 304 305 304 297 296 300
Height
1537 1541 1543 1539 1537 1537 1537 1538 1539 1532 1523 1523 1520 1517 1508 1503 1502 1501 1500 1497 1495 1492 1490 1487 1485 1484 1485 1486 1488 1490 1493 1495 1497 1499 1500 1501 1501 1502 1503 1503 1505 1506 1507 1508
1541 1541 1533 1531 1532 1533 1534 1536 1536 1528 1522 1522 1520 1517 1508 1504 1504 1503 1502 1499 1496 1493 1490 1487 1486 1485 1485 1485 1487 1488 1490 1492 1494 1495 1496 1497 1498 1498 1498 1499 1499 1499 1500 1500
1540 1534 1528 1529 1530 1531 1532 1533 1532 1531 1526 1522 1521 1518 1511 1508 1506 1505 1503 1501 1498 1495 1492 1490 1488 1486 1486 1486 1486 1487 1489 1490 1491 1492 1494 1494 1494 1493 1492 1492 1492 1492 1493 1493
1534 1528 1527 1528 1529 1529 1534 1526 1527 1528 1532 1534 1530 1534 1518 1510 1508 1506 1504 1501 1499 1497 1495 1492 1490 1488 1487 1487 1487 1487 1487 1488 1489 1490 1489 1489 1488 1486 1485 1486 1485 1485 1485 1485
1533 1527 1527 1528 1527 1526 1527 1524 1526 1527 1529 1534 1531 1534 1524 1511 1510 1507 1504 1502 1500 1498 1496 1494 1492 1490 1489 1487 1487 1486 1486 1486 1487 1487 1486 1485 1484 1482 1481 1480 1478 1477 1477 1476
1529 1525 1525 1525 1524 1524 1524 1526 1527 1532 1536 1537 1527 1533 1525 1515 1506 1504 1503 1502 1501 1499 1498 1496 1494 1492 1490 1489 1487 1486 1486 1485 1485 1484 1483 1481 1479 1478 1476 1473 1471 1470 1468 1467
1531 1526 1524 1523 1525 1525 1527 1537 1544 1541 1545 1537 1526 1526 1521 1504 1500 1500 1501 1501 1501 1500 1499 1497 1495 1493 1491 1489 1488 1486 1485 1484 1483 1481 1480 1478 1475 1473 1470 1468 1465 1463 1460 1458
1536 1536 1525 1523 1524 1528 1529 1535 1547 1549 1551 1544 1530 1527 1513 1502 1499 1499 1501 1502 1502 1501 1499 1497 1495 1493 1491 1489 1487 1486 1484 1482 1481 1479 1477 1474 1471 1468 1465 1462 1459 1455 1452 1449
1535 1533 1523 1523 1523 1525 1528 1534 1535 1546 1546 1548 1538 1525 1510 1502 1502 1502 1502 1502 1502 1500 1499 1497 1495 1494 1492 1489 1487 1485 1483 1480 1478 1475 1472 1469 1466 1463 1459 1456 1452 1448 1445 1441
1525 1531 1526 1524 1525 1525 1527 1532 1541 1544 1548 1551 1542 1531 1518 1506 1505 1504 1503 1502 1501 1500 1498 1497 1495 1493 1491 1489 1486 1483 1481 1478 1474 1471 1468 1464 1461 1457 1453 1449 1445 1441 1437 1433
1523 1531 1531 1528 1527 1526 1530 1531 1534 1543 1547 1551 1549 1533 1507 1503 1502 1503 1502 1501 1500 1499 1498 1496 1494 1492 1490 1487 1484 1481 1477 1474 1470 1466 1462 1458 1454 1450 1446 1441 1437 1433 1428 1424
1524 1533 1537 1531 1523 1522 1525 1527 1533 1540 1541 1545 1549 1530 1502 1501 1501 1501 1501 1501 1499 1498 1497 1495 1493 1490 1487 1484 1480 1477 1473 1469 1464 1460 1456 1451 1447 1443 1438 1433 1428 1424 1419 1414
1524 1533 1540 1534 1531 1525 1524 1523 1526 1531 1538 1544 1544 1524 1503 1502 1501 1502 1501 1500 1498 1496 1495 1493 1490 1487 1484 1480 1476 1472 1468 1463 1459 1454 1449 1444 1440 1435 1429 1424 1419 1414 1409 1404
1521 1530 1536 1535 1531 1525 1525 1523 1523 1528 1537 1537 1529 1514 1504 1503 1502 1501 1500 1498 1496 1495 1493 1490 1487 1484 1480 1476 1472 1467 1462 1458 1453 1447 1442 1437 1432 1426 1421 1415 1410 1405 1400 1395
1521 1529 1529 1527 1524 1524 1522 1519 1519 1522 1522 1524 1514 1509 1503 1502 1501 1500 1498 1496 1495 1493 1491 1487 1484 1480 1475 1470 1466 1461 1456 1451 1446 1440 1435 1429 1423 1417 1412 1406 1400 1395 1390 1385
1521 1526 1526 1525 1521 1521 1518 1511 1511 1512 1511 1511 1508 1506 1502 1501 1500 1498 1497 1495 1493 1490 1487 1484 1479 1475 1470 1465 1460 1455 1449 1444 1439 1432 1426 1420 1414 1408 1402 1397 1391 1386 1380 1375
1522 1526 1529 1532 1526 1523 1518 1505 1504 1504 1503 1504 1506 1505 1502 1501 1499 1497 1495 1493 1491 1487 1483 1479 1475 1470 1465 1460 1454 1448 1442 1437 1431 1424 1418 1411 1405 1399 1393 1387 1382 1376 1371 1365
1519 1524 1530 1534 1528 1529 1507 1499 1499 1501 1502 1502 1502 1503 1502 1501 1498 1495 1493 1491 1487 1483 1479 1474 1470 1465 1460 1454 1448 1442 1436 1429 1422 1416 1409 1403 1397 1390 1384 1378 1373 1367 1362 1356
1512 1519 1529 1535 1532 1523 1506 1497 1496 1498 1502 1502 1502 1501 1500 1497 1494 1492 1490 1487 1484 1480 1475 1470 1465 1460 1454 1448 1442 1435 1428 1421 1415 1408 1401 1395 1389 1382 1376 1370 1364 1358 1353 1346
1513 1515 1525 1533 1530 1524 1503 1496 1494 1497 1502 1502 1500 1499 1497 1494 1495 1491 1487 1484 1480 1475 1470 1465 1460 1454 1448 1442 1435 1428 1420 1414 1407 1401 1394 1388 1382 1375 1368 1361 1355 1349 1344 1337
1517 1520 1524 1528 1528 1513 1499 1495 1495 1503 1503 1501 1498 1497 1496 1494 1493 1488 1483 1479 1475 1470 1465 1459 1454 1448 1442 1436 1428 1421 1414 1407 1400 1393 1386 1380 1374 1367 1360 1353 1347 1341 1335 1328
1510 1517 1521 1525 1526 1514 1496 1495 1499 1500 1499 1498 1496 1495 1493 1490 1486 1482 1478 1473 1469 1464 1459 1453 1447 1441 1435 1429 1422 1414 1407 1400 1393 1385 1378 1371 1365 1358 1352 1345 1338 1332 1326 1320
1502 1501 1503 1506 1502 1496 1494 1495 1497 1497 1496 1495 1493 1491 1488 1485 1481 1477 1473 1468 1463 1459 1453 1447 1441 1434 1427 1422 1415 1407 1399 1392 1385 1377 1370 1363 1356 1350 1344 1337 1330 1324 1318 1312
1496 1494 1497 1498 1494 1494 1494 1494 1494 1494 1493 1491 1489 1487 1484 1480 1476 1472 1468 1463 1458 1453 1447 1441 1434 1426 1419 1413 1407 1401 1393 1385 1377 1369 1361 1354 1347 1341 1335 1329 1323 1317 1311 1305
1493 1493 1494 1494 1492 1492 1492 1492 1491 1490 1489 1487 1485 1482 1479 1476 1472 1468 1463 1458 1453 1447 1441 1434 1428 1420 1412 1405 1398 1392 1385 1377 1369 1361 1354 1347 1340 1333 1327 1321 1316 1310 1304 1300
1489 1490 1492 1491 1489 1490 1490 1489 1488 1487 1485 1483 1481 1478 1475 1473 1468 1463 1458 1453 1447 1441 1434 1427 1420 1413 1405 1397 1390 1383 1377 1370 1362 1353 1346 1339 1333 1326 1320 1313 1307 1302 1297 1292